Dewpoint
55 55 54 54 54 54 55 55 56 56 56 56 55 55 55 55 55 49 43 45 48 54 55 47 44 42 43 41 45 42 32 25 23 22 22 21 22 21 27 26 25 25 24 33 40
54 54 54 54 54 54 54 55 56 56 56 56 55 55 55 54 50 42 51 46 51 56 45 44 40 42 39 38 41 37 31 25 23 23 21 21 21 22 22 23 27 27 27 32 35
54 53 53 53 54 54 54 54 55 55 55 56 55 55 54 53 45 49 56 53 53 57 48 42 41 41 37 37 37 36 33 27 25 26 29 30 30 26 21 23 25 28 29 31 33
54 53 53 53 54 54 54 55 55 55 55 56 55 54 53 50 30 56 60 58 57 54 44 42 40 38 35 31 31 31 31 29 30 29 31 29 30 29 27 26 28 29 32 34 33
53 52 52 53 53 53 54 54 54 54 56 55 55 52 51 40 38 54 58 54 53 50 43 41 37 35 32 30 28 26 27 29 32 31 31 30 31 30 28 27 27 28 29 31 34
52 52 52 52 53 52 54 54 53 55 54 52 51 51 47 28 41 51 53 50 46 44 41 40 38 36 34 32 30 28 29 29 31 30 30 29 28 28 26 25 25 26 28 27 29
52 52 52 52 53 52 53 52 52 55 52 51 50 48 40 36 44 51 50 46 46 43 40 40 40 39 36 32 32 32 31 31 31 30 28 29 27 27 28 26 24 22 22 28 31
52 51 51 52 52 52 53 51 53 55 53 52 51 48 35 46 52 44 45 43 44 43 43 44 43 41 37 35 33 30 29 27 26 27 29 27 22 25 21 24 25 26 28 29 35
51 51 51 52 52 53 53 50 55 55 54 53 50 46 36 46 35 37 42 41 41 43 45 41 43 38 35 32 31 30 23 22 23 27 26 27 23 26 26 26 25 26 27 30 34
50 50 51 52 53 53 52 50 54 51 53 46 43 38 31 28 36 39 45 44 42 43 43 42 40 36 34 30 25 27 24 21 20 21 21 20 21 24 26 25 25 24 25 26 30
50 50 51 52 52 52 48 46 39 39 36 34 33 32 33 25 40 40 41 41 42 40 36 38 34 31 28 25 24 25 24 22 22 21 19 18 18 20 23 23 23 24 25 30 40
49 50 50 50 50 51 43 37 39 41 35 36 36 34 30 23 26 32 38 35 34 31 31 29 27 29 30 27 25 24 23 22 22 23 20 20 19 20 20 20 19 19 31 34 37
49 50 50 50 49 45 30 31 37 43 39 33 34 27 24 25 27 25 29 29 31 29 28 26 26 27 26 25 21 19 19 18 16 17 17 18 17 16 16 17 25 31 33 34 34
48 49 50 50 41 33 32 34 44 44 36 26 29 25 17 26 27 22 24 23 26 25 11 17 16 7 9 11 14 13 15 17 18 16 14 16 12 13 13 13 28 29 30 29 27
48 48 49 48 32 32 33 38 46 45 25 26 26 26 17 20 20 17 22 15 11 9 9 9 6 4 9 10 8 8 14 14 8 8 10 13 16 14 15 13 28 29 25 22 22
47 47 47 35 35 30 37 45 45 36 28 25 22 15 11 20 16 13 12 15 14 8 7 5 4 12 8 6 5 4 4 4 5 10 11 11 14 21 23 28 29 30 27 25 28
46 47 37 23 26 31 40 45 34 29 19 17 13 11 12 12 12 8 6 5 9 7 6 4 6 6 4 -0 1 1 0 3 1 4 3 10 14 19 26 29 30 29 31 32 33
44 45 43 23 31 34 44 35 24 16 15 13 10 10 15 8 7 6 2 6 12 9 6 4 3 3 0 -2 -3 -2 -1 2 -4 3 6 12 15 19 25 27 28 30 30 29 30
44 46 35 29 31 35 38 30 18 13 11 10 9 4 9 5 4 2 -1 9 11 9 5 3 1 3 0 0 1 3 3 4 5 4 3 3 20 20 24 21 22 23 25 28 30
39 41 31 29 33 38 28 18 17 13 11 9 4 3 1 3 3 -1 -4 9 5 4 4 2 -1 -0 2 4 6 12 11 8 9 1 -1 0 9 10 15 17 20 20 21 24 28
40 31 27 28 36 25 21 15 13 13 12 9 7 7 6 3 0 -5 -4 2 3 4 4 3 4 2 1 -5 13 14 9 8 5 8 5 4 6 17 16 18 19 20 21 19 22
37 25 32 31 18 16 14 14 16 12 14 10 11 10 9 1 -4 -3 -1 1 5 7 7 7 8 1 -3 -7 6 11 14 13 4 2 2 5 4 19 18 17 15 15 15 13 13
25 22 33 27 8 10 14 15 14 12 12 9 10 8 6 1 -2 1 1 9 9 9 12 14 7 1 -5 -2 13 12 9 8 12 9 8 5 5 13 11 8 8 8 8 8 9
27 19 23 20 14 10 10 11 11 15 12 10 10 5 3 1 0 -1 -0 7 12 8 14 10 5 -0 -3 9 8 7 2 4 5 3 5 7 3 2 4 2 3 5 5 6 7
23 17 19 8 11 10 11 11 8 8 10 10 7 5 4 1 0 1 4 3 6 9 5 4 3 2 1 16 8 5 3 1 -0 3 -0 1 3 2 2 2 3 4 5 3 5
21 21 16 14 14 10 8 11 11 9 11 10 9 7 5 1 7 8 9 8 6 6 5 4 3 1 0 11 5 4 4 1 1 1 0 0 2 3 3 4 4 4 4 5 6
26 24 21 14 11 6 10 12 11 12 13 11 8 7 6 12 13 13 12 10 9 7 4 -0 2 3 -1 -6 2 4 6 3 1 -0 3 2 3 3 4 4 5 5 6 6 7
Lifted_Index
11 12 12 12 12 11 11 11 10 10 10 10 10 11 11 11 11 10 10 10 9 7 8 9 9 8 8 8 8 7 6 4 4 6 7 7 7 8 8 8 8 8 8 7 7
12 12 12 12 12 12 11 11 11 10 10 10 11 11 11 11 11 10 9 9 8 7 8 9 9 8 8 8 8 7 6 5 6 7 7 7 7 8 8 7 7 7 7 7 7
12 12 12 12 12 12 12 12 11 11 11 11 11 11 12 11 9 7 7 7 7 7 8 9 9 9 9 8 8 7 6 6 7 7 7 7 7 8 7 7 7 7 7 7 7
12 13 13 13 13 13 12 12 12 11 11 11 11 11 12 11 8 6 6 6 6 7 9 9 9 9 9 9 9 8 8 8 8 8 8 8 7 7 7 7 7 7 6 6 6
13 13 13 13 13 13 13 12 12 12 11 11 12 12 11 10 9 7 6 7 7 8 9 9 9 9 9 9 9 9 9 9 8 8 8 8 8 7 7 7 7 7 7 7 7
14 14 14 14 14 13 13 13 12 12 12 12 12 12 11 10 10 8 8 8 9 9 10 9 9 9 9 9 9 9 9 9 9 9 8 8 8 7 7 7 7 7 7 7 7
14 14 14 14 14 13 13 13 12 12 12 13 13 12 11 11 10 9 9 10 10 10 10 10 9 9 9 9 9 9 9 8 8 8 8 8 7 7 7 7 7 7 7 7 7
15 15 15 14 14 14 13 13 12 11 12 12 12 11 11 12 11 11 10 11 11 10 10 9 9 9 9 9 8 8 7 7 7 7 7 7 7 7 7 7 6 6 6 6 6
15 15 15 14 14 14 14 13 12 11 12 12 12 11 12 13 13 12 12 11 11 10 10 9 9 8 8 7 7 6 5 5 6 6 7 7 7 7 7 7 6 6 6 6 5
16 15 15 15 14 14 14 14 12 12 12 12 12 12 13 14 14 13 12 11 10 9 9 9 8 8 7 6 5 5 5 6 6 6 6 7 7 7 7 7 7 7 6 6 5
16 16 15 15 15 15 15 14 13 13 13 13 13 14 15 15 14 13 12 11 10 9 9 8 8 7 7 7 6 6 6 7 7 7 6 6 7 7 7 7 7 7 6 6 5
16 16 16 15 16 16 16 15 15 14 13 14 14 14 16 16 15 13 13 12 11 10 9 9 8 7 7 8 8 7 7 7 7 7 6 6 6 6 6 6 5 5 5 4 4
17 16 16 16 16 16 16 16 16 14 13 13 14 15 16 16 15 14 14 13 12 11 10 9 9 9 9 9 9 9 8 7 7 7 6 6 5 5 5 4 3 3 3 3 3
17 17 16 16 16 16 16 16 16 13 10 11 14 15 16 16 15 15 15 15 13 12 11 11 11 11 11 11 11 10 9 7 6 6 6 5 4 3 3 2 1 1 1 2 2
17 17 17 16 17 17 17 16 14 11 8 10 13 15 16 15 15 15 16 16 15 13 13 13 13 13 13 13 12 11 9 8 6 4 4 3 2 2 1 1 0 1 3 3 3
17 17 17 17 17 18 17 15 12 8 7 9 12 14 14 14 15 15 16 16 15 14 14 14 14 14 14 12 11 9 7 5 4 2 2 1 1 1 1 1 2 4 5 6 5
17 17 18 18 18 18 17 13 9 8 9 10 11 12 13 13 15 15 16 16 15 14 14 15 15 15 14 11 9 7 5 3 1 1 1 1 1 1 2 4 5 6 7 7 7
17 17 17 18 18 18 15 11 8 9 10 11 12 12 12 14 15 15 16 16 17 17 15 14 14 15 14 11 9 6 4 1 0 0 1 1 1 2 4 5 6 7 8 8 8
17 16 17 18 19 17 14 10 9 11 12 12 12 11 12 14 15 16 17 18 19 19 18 15 14 14 13 10 7 5 3 1 0 0 1 1 1 2 4 5 6 7 8 9 9
16 16 17 19 18 16 12 10 11 14 15 14 12 12 12 13 15 16 18 19 20 19 17 15 13 12 10 7 5 3 2 1 0 0 0 1 1 3 4 5 6 7 8 9 9
15 15 17 18 17 14 12 12 14 16 17 16 14 13 14 15 16 18 19 19 19 18 16 13 11 9 6 4 2 1 1 1 0 0 0 1 2 4 5 5 6 7 8 9 10
14 15 17 17 15 13 13 14 16 17 18 17 17 17 17 17 18 19 19 19 18 15 13 10 8 6 4 2 1 1 1 1 1 1 0 1 3 5 6 6 6 7 8 9 10
14 14 16 17 14 13 14 15 16 18 18 18 19 19 20 19 19 19 19 18 16 13 11 8 6 5 3 1 1 0 0 1 1 1 1 1 3 4 5 6 6 7 8 9 10
14 15 16 16 15 14 14 15 16 18 19 20 20 21 21 20 20 19 18 16 13 11 9 7 5 3 2 1 0 1 1 1 1 1 2 2 3 4 5 6 7 7 8 9 10
15 15 16 16 16 16 15 15 16 18 20 20 21 21 21 21 20 18 16 14 11 9 7 6 4 2 1 0 0 1 1 1 1 2 2 3 3 4 5 6 7 8 9 9 10
16 16 16 16 16 16 16 16 17 18 20 20 21 21 21 20 19 17 14 11 9 8 7 5 4 2 1 1 1 1 1 2 2 2 2 3 3 5 6 7 7 8 9 10 10
18 18 17 16 16 16 16 17 18 19 20 21 21 22 21 20 18 16 13 10 8 7 6 5 4 3 2 1 1 1 1 2 2 3 3 3 3 5 6 6 7 8 9 10 10